This demonstration page uses our WeatherBlox Daily Observations layout. Learn more.

Left ArrowRight Arrow

34.16533, -84.80231

Hourly Observations for December 26, 2017

Temp ( °F °C ) Dew Point ( °F °C ) Humidity (%) Winds ( mph kmh ) Pressure ( in mb ) Visibility ( mi km ) Precip ( " mm )
12:53 am 00:53 Clear 31 -0.6 17 -8.3 56 56 N 5 7 30.41 1030 10 16 0.00 0.00
1:53 am 01:53 Clear 31 -0.6 17 -8.3 56 56 N 3 6 30.40 1030 10 16 0.00 0.00
2:53 am 02:53 Clear 31 -0.6 17 -8.3 56 56 Calm 30.42 1030 10 16 0.00 0.00
3:53 am 03:53 Clear 30 -1.1 18 -7.8 61 61 N 5 7 30.42 1030 10 16 0.00 0.00
4:53 am 04:53 Clear 30 -1.1 18 -7.8 61 61 NNE 5 7 30.41 1030 10 16 0.00 0.00
5:53 am 05:53 Clear 29 -1.7 18 -7.8 63 63 Calm 30.42 1030 10 16 0.00 0.00
6:53 am 06:53 Clear 27 -2.8 20 -6.7 75 75 Calm 30.43 1031 10 16 0.00 0.00
7:53 am 07:53 Sunny 25 -3.9 21 -6.1 85 85 Calm 30.45 1031 10 16 0.00 0.00
8:53 am 08:53 Sunny 30 -1.1 22 -5.6 72 72 Calm 30.45 1031 10 16 0.00 0.00
9:53 am 09:53 Sunny 34 1.1 22 -5.6 61 61 Calm 30.46 1031 10 16 0.00 0.00
10:53 am 10:53 Sunny 42 5.6 15 -9.4 33 33 VRB 6 9 30.46 1032 10 16 0.00 0.00
11:53 am 11:53 Sunny 44 6.7 12 -11.1 27 27 ESE 5 7 30.44 1031 10 16 0.00 0.00
12:53 pm 12:53 Sunny 48 8.9 11 -11.7 22 22 SSE 8 13 30.38 1029 10 16 0.00 0.00
1:53 pm 13:53 Sunny 49 9.4 13 -10.6 23 23 SSE 13 20 30.34 1027 10 16 0.00 0.00
2:53 pm 14:53 Cloudy 50 10 15 -9.4 25 25 Calm 30.34 1028 10 16 0.00 0.00
3:53 pm 15:53 Mostly Sunny 49 9.4 19 -7.2 31 31 VRB 6 9 30.33 1027 10 16 0.00 0.00
4:53 pm 16:53 Mostly Sunny 47 8.3 22 -5.6 37 37 SSE 3 6 30.34 1027 10 16 0.00 0.00
5:53 pm 17:53 Clear 38 3.3 30 -1.1 73 73 Calm 30.34 1027 10 16 0.00 0.00
6:53 pm 18:53 Clear 36 2.2 28 -2.2 73 73 Calm 30.35 1028 10 16 0.00 0.00
7:53 pm 19:53 Clear 33 0.6 28 -2.2 82 82 Calm 30.36 1028 10 16 0.00 0.00
8:53 pm 20:53 Clear 32 0 27 -2.8 82 82 Calm 30.37 1029 10 16 0.00 0.00
9:53 pm 21:53 Clear 30 -1.1 26 -3.3 85 85 Calm 30.37 1029 10 16 0.00 0.00
10:53 pm 22:53 Clear 29 -1.7 26 -3.3 89 89 Calm 30.37 1028 10 16 0.00 0.00
11:53 pm 23:53 Partly Cloudy 36 2.2 25 -3.9 64 64 Calm 30.36 1028 10 16 0.00 0.00

Powered by AerisWeather